TimeEDT,TemperatureF,Dew PointF,Humidity,Sea Level PressureIn,VisibilityMPH,Wind Direction,Wind SpeedMPH,Gust SpeedMPH,PrecipitationIn,Events,Conditions,WindDirDegrees,DateUTC
12:51 AM,64.0,54.0,70,29.94,10.0,North,-9999.0,-,N/A,,Clear,0,2012-06-08 04:51:00
1:51 AM,64.9,54.0,68,29.94,10.0,West,6.9,-,N/A,,Clear,280,2012-06-08 05:51:00
2:51 AM,63.0,54.0,72,29.93,10.0,WNW,5.8,-,N/A,,Clear,290,2012-06-08 06:51:00
3:51 AM,63.0,54.0,72,29.92,10.0,West,4.6,-,N/A,,Clear,280,2012-06-08 07:51:00
4:51 AM,61.0,55.0,81,29.92,10.0,Calm,Calm,-,N/A,,Clear,0,2012-06-08 08:51:00
5:51 AM,60.1,54.0,80,29.92,10.0,Variable,3.5,-,N/A,,Clear,0,2012-06-08 09:51:00
6:51 AM,62.1,54.0,75,29.93,10.0,Calm,Calm,-,N/A,,Clear,0,2012-06-08 10:51:00
7:51 AM,64.0,53.1,67,29.94,10.0,Variable,3.5,-,N/A,,Clear,0,2012-06-08 11:51:00
8:51 AM,66.0,54.0,65,29.94,10.0,Variable,4.6,-,N/A,,Clear,0,2012-06-08 12:51:00
9:51 AM,70.0,54.0,57,29.94,10.0,West,4.6,-,N/A,,Clear,280,2012-06-08 13:51:00
10:51 AM,73.0,54.0,51,29.93,10.0,West,5.8,-,N/A,,Clear,280,2012-06-08 14:51:00
11:51 AM,77.0,53.1,43,29.91,10.0,Variable,3.5,-,N/A,,Clear,0,2012-06-08 15:51:00
12:51 PM,79.0,51.1,38,29.90,10.0,West,6.9,-,N/A,,Clear,280,2012-06-08 16:51:00
1:51 PM,78.1,52.0,40,29.88,10.0,Variable,3.5,-,N/A,,Scattered Clouds,0,2012-06-08 17:51:00
2:51 PM,79.0,51.1,38,29.86,10.0,Variable,3.5,-,N/A,,Mostly Cloudy,0,2012-06-08 18:51:00
3:51 PM,80.1,53.1,39,29.84,10.0,Calm,Calm,-,N/A,,Partly Cloudy,0,2012-06-08 19:51:00
4:51 PM,81.0,48.9,33,29.83,10.0,Variable,6.9,-,N/A,,Scattered Clouds,0,2012-06-08 20:51:00
5:51 PM,79.0,45.0,30,29.82,10.0,Variable,3.5,-,N/A,,Scattered Clouds,0,2012-06-08 21:51:00
6:51 PM,75.0,55.0,50,29.83,10.0,Calm,Calm,-,N/A,,Mostly Cloudy,0,2012-06-08 22:51:00
7:51 PM,75.0,51.1,43,29.83,10.0,Calm,Calm,-,N/A,,Scattered Clouds,0,2012-06-08 23:51:00
8:51 PM,73.9,50.0,43,29.84,10.0,Variable,3.5,-,N/A,,Clear,0,2012-06-09 00:51:00
9:51 PM,73.9,51.1,45,29.85,10.0,Calm,Calm,-,N/A,,Partly Cloudy,0,2012-06-09 01:51:00
10:51 PM,73.0,53.1,49,29.86,10.0,WSW,3.5,-,N/A,,Clear,240,2012-06-09 02:51:00
11:51 PM,72.0,54.0,53,29.86,10.0,North,-9999.0,-,N/A,,Clear,0,2012-06-09 03:51:00